Location: Quaker Farms
(41.4276°N, 73.1557°W)
Time: 20:18:13
(UTC+00:00)

S-56A Canister/Altair - Pass Details

Date: 23 June 2021
Orbit: 631 x 2501 km, 38.9° (Epoch: 30 July)

Event Time Altitude Azimuth Distance (km) Brightness Sun altitude
Rises 14:55:09 0° 265° (W) 3,379 10.6 59.2°
Reaches altitude 10° 14:58:59 10° 237° (WSW) 2,733 10.3 59.9°
Maximum altitude 15:01:47 13° 212° (SSW) 2,746 10.5 60.3°
Drops below altitude 10° 15:04:59 10° 187° (S) 3,235 11.0 60.8°
Sets 15:10:33 0° 163° (SSE) 4,686 11.8 61.7°
